This demonstration page uses our WeatherBlox Daily Observations layout. Learn more.

Left ArrowRight Arrow

40.97296, -117.73568

Hourly Observations for November 30, 2022

Temp ( °F °C ) Dew Point ( °F °C ) Humidity (%) Winds ( mph kmh ) Pressure ( in mb ) Visibility ( mi km ) Precip ( " mm )
12:56 am 00:56 undefined N/A N/A N/A undefined N/A 30.05 1018 N/A 0.00 0.00
1:56 am 01:56 undefined N/A N/A N/A undefined N/A 30.04 1017 N/A 0.00 0.00
2:56 am 02:56 undefined N/A N/A N/A undefined N/A 30.03 1017 N/A 0.00 0.00
3:56 am 03:56 undefined N/A N/A N/A undefined N/A 30.02 1017 N/A 0.00 0.00
4:56 am 04:56 undefined N/A N/A N/A undefined N/A 30.00 1016 N/A 0.00 0.00
5:56 am 05:56 undefined N/A N/A N/A undefined N/A 30.00 1016 N/A 0.00 0.00
6:56 am 06:56 undefined N/A N/A N/A undefined N/A 29.99 1015 N/A 0.00 0.00
7:56 am 07:56 undefined N/A N/A N/A undefined N/A 30.00 1016 N/A 0.00 0.00
8:56 am 08:56 undefined N/A N/A N/A undefined N/A 29.99 1015 N/A 0.00 0.00
9:56 am 09:56 undefined N/A N/A N/A undefined N/A 29.99 1015 N/A 0.00 0.00
10:56 am 10:56 undefined N/A N/A N/A undefined N/A 29.94 1014 N/A 0.00 0.00
11:56 am 11:56 undefined N/A N/A N/A undefined N/A 29.91 1013 N/A 0.00 0.00
12:56 pm 12:56 undefined 46 7.8 19 -7.2 34 34 undefined N/A 29.76 1008 N/A 0.00 0.00
1:56 pm 13:56 undefined 49 9.4 18 -7.8 29 29 WNW 8 13 29.70 1006 10 16 0.00 0.00
2:56 pm 14:56 Sunny 48 8.9 15 -9.4 26 26 SSW 6 9 29.70 1006 10 16 0.00 0.00
3:56 pm 15:56 Mostly Cloudy 46 7.8 16 -8.9 29 29 W 3 6 29.71 1006 10 16 0.00 0.00
4:56 pm 16:56 Cloudy 41 5 16 -8.9 36 36 SW 6 9 29.75 1008 10 16 0.00 0.00
5:56 pm 17:56 Cloudy 38 3.3 17 -8.3 42 42 S 8 13 29.78 1009 10 16 0.00 0.00
6:56 pm 18:56 Cloudy 40 4.4 17 -8.3 39 39 SE 9 15 29.76 1008 10 16 0.00 0.00
7:56 pm 19:56 Mostly Cloudy 38 3.3 15 -9.4 39 39 S 13 20 29.77 1008 10 16 0.00 0.00
8:56 pm 20:56 Mostly Clear 32 0 15 -9.4 49 49 SSW 5 7 29.83 1010 10 16 0.00 0.00
9:56 pm 21:56 Mostly Clear 37 2.8 16 -8.9 42 42 S 12 19 29.76 1008 10 16 0.00 0.00
10:56 pm 22:56 Clear 36 2.2 17 -8.3 46 46 S 10 17 29.77 1008 10 16 0.00 0.00
11:56 pm 23:56 Clear 35 1.7 17 -8.3 47 47 SSW 9 15 29.76 1008 10 16 0.00 0.00

Powered by AerisWeather